, AK

(GMT )
Aniak

Weather History for PANI - September, 2012

Change the Weather History Date:

Friday, September 28, 2012

  Actual Average Record
Temperature  
Mean Temperature 34 °F -  
Max Temperature 39 °F 43 °F 51 °F (2002)
Min Temperature 30 °F 31 °F 24 °F (2008)
Degree Days  
Heating Degree Days 30    
Moisture  
Dew Point 26 °F    
Average Humidity 77    
Maximum Humidity 93    
Minimum Humidity 56    
Precipitation  
Precipitation 0.00 in - - ()
Sea Level Pressure  
Sea Level Pressure 29.45 in    
Wind  
Wind Speed 10 mph (WNW)    
Max Wind Speed 15 mph    
Max Gust Speed 20 mph    
Visibility 10 miles    
Events      
Averages and records for this station are not official NWS values.
T = Trace of Precipitation, MM = Missing Value Source: NWS Daily Summary

Daily Weather History Graph

Daily Weather History Graph

Search for Another Location

Airport or City:

Trip Planner

Search our weather history database for the weather conditions in past years. The results will help you decide how hot, cold, wet, or windy it might be!

Date:

Astronomy

Sep. 28, 2012 Rise Set
Actual Time 8:39 AM AKDT 8:16 PM AKDT
Civil Twilight 7:55 AM AKDT 8:59 PM AKDT
Nautical Twilight 7:03 AM AKDT 9:51 PM AKDT
Astronomical Twilight 6:08 AM AKDT 10:46 PM AKDT
Moon 7:24 PM AKDT (9/28) 7:13 AM AKDT (9/28)
Length of Visible Light 13h 04m
Length of Day
11h 37m
Waxing Gibbous, 98% of the Moon is Illuminated
Sep 28
Waxing Gibbous
Sep 29
Full
Oct 7
Last Quarter
Oct 15
New
Oct 21
First Quarter

Hourly Weather History & Observations

Time (AKDT) Temp. Windchill Dew Point Humidity Pressure Visibility Wind Dir Wind Speed Gust Speed Precip Events Conditions
12:16 AM 33.8 °F 23.9 °F 26.6 °F 75% 29.37 in 10.0 mi NW 15.0 mph 18.4 mph N/A   Overcast
12:36 AM 33.8 °F 24.8 °F 28.4 °F 81% 29.37 in 10.0 mi WNW 12.7 mph 19.6 mph N/A   Mostly Cloudy
12:56 AM 33.8 °F 25.8 °F 26.6 °F 75% 29.38 in 10.0 mi WNW 10.4 mph - N/A   Mostly Cloudy
1:16 AM 32.0 °F 23.6 °F 28.4 °F 87% 29.38 in 10.0 mi WNW 10.4 mph - N/A   Overcast
1:36 AM 32.0 °F 23.6 °F 28.4 °F 87% 29.38 in 10.0 mi WNW 10.4 mph 17.3 mph N/A   Overcast
1:56 AM 33.8 °F 25.8 °F 26.6 °F 75% 29.38 in 10.0 mi WNW 10.4 mph 17.3 mph N/A   Mostly Cloudy
2:16 AM 32.0 °F 23.0 °F 26.6 °F 80% 29.39 in 10.0 mi WNW 11.5 mph - N/A   Mostly Cloudy
2:36 AM 32.0 °F 22.5 °F 26.6 °F 80% 29.39 in 10.0 mi WNW 12.7 mph - N/A   Mostly Cloudy
2:56 AM 32.0 °F 24.2 °F 26.6 °F 80% 29.40 in 10.0 mi West 9.2 mph - N/A   Mostly Cloudy
3:16 AM 30.2 °F 20.8 °F 26.6 °F 86% 29.40 in 10.0 mi West 11.5 mph - N/A   Mostly Cloudy
3:36 AM 30.2 °F 22.6 °F 26.6 °F 86% 29.40 in 10.0 mi West 8.1 mph - N/A   Mostly Cloudy
3:56 AM 30.2 °F 20.8 °F 26.6 °F 86% 29.40 in 10.0 mi WNW 11.5 mph - N/A   Overcast
4:16 AM 30.2 °F 20.8 °F 24.8 °F 80% 29.41 in 10.0 mi WNW 11.5 mph - N/A   Overcast
4:36 AM 30.2 °F 20.2 °F 24.8 °F 80% 29.41 in 10.0 mi WNW 12.7 mph 17.3 mph N/A   Overcast
4:56 AM 30.2 °F 20.8 °F 24.8 °F 80% 29.41 in 10.0 mi West 11.5 mph 17.3 mph N/A   Overcast
5:16 AM 32.0 °F 22.1 °F 26.6 °F 80% 29.42 in 10.0 mi WNW 13.8 mph - N/A   Overcast
5:36 AM 32.0 °F 24.8 °F 24.8 °F 75% 29.42 in 10.0 mi WNW 8.1 mph - N/A   Overcast
5:56 AM 32.0 °F 23.6 °F 26.6 °F 80% 29.42 in 9.0 mi WNW 10.4 mph - N/A   Overcast
6:16 AM 30.2 °F 21.3 °F 24.8 °F 80% 29.42 in 10.0 mi WNW 10.4 mph - N/A   Overcast
6:36 AM 30.2 °F 21.3 °F 24.8 °F 80% 29.42 in 10.0 mi West 10.4 mph 16.1 mph N/A   Overcast
6:56 AM 30.2 °F 21.9 °F 24.8 °F 80% 29.42 in 10.0 mi WNW 9.2 mph - N/A   Overcast
7:16 AM 30.2 °F 20.2 °F 24.8 °F 80% 29.42 in 10.0 mi WNW 12.7 mph - N/A   Overcast
7:36 AM 30.2 °F 20.8 °F 24.8 °F 80% 29.42 in 10.0 mi WNW 11.5 mph - N/A   Mostly Cloudy
7:56 AM 30.2 °F 21.9 °F 24.8 °F 80% 29.42 in 10.0 mi WNW 9.2 mph 17.3 mph N/A   Overcast
8:16 AM 30.2 °F 20.8 °F 24.8 °F 80% 29.43 in 10.0 mi WNW 11.5 mph 18.4 mph N/A   Mostly Cloudy
8:36 AM 30.2 °F 22.6 °F 24.8 °F 80% 29.43 in 10.0 mi West 8.1 mph - N/A   Mostly Cloudy
8:56 AM 30.2 °F 20.8 °F 24.8 °F 80% 29.44 in 10.0 mi West 11.5 mph - N/A   Mostly Cloudy
9:16 AM 30.2 °F 21.9 °F 24.8 °F 80% 29.45 in 10.0 mi WNW 9.2 mph - N/A   Mostly Cloudy
9:36 AM 30.2 °F 22.6 °F 24.8 °F 80% 29.45 in 6.0 mi West 8.1 mph - N/A   Overcast
9:56 AM 30.2 °F 21.9 °F 24.8 °F 80% 29.46 in 7.0 mi West 9.2 mph - N/A   Overcast
10:16 AM 30.2 °F 23.4 °F 24.8 °F 80% 29.46 in 10.0 mi West 6.9 mph - N/A   Overcast
10:36 AM 30.2 °F 24.3 °F 24.8 °F 80% 29.46 in 10.0 mi West 5.8 mph - N/A   Overcast
10:56 AM 30.2 °F 24.3 °F 24.8 °F 80% 29.47 in 10.0 mi West 5.8 mph - N/A   Scattered Clouds
11:16 AM 32.0 °F 24.8 °F 26.6 °F 80% 29.47 in 10.0 mi West 8.1 mph - N/A   Scattered Clouds
11:36 AM 33.8 °F 26.4 °F 26.6 °F 75% 29.47 in 10.0 mi WNW 9.2 mph - N/A   Partly Cloudy
11:56 AM 33.8 °F 27.0 °F 26.6 °F 75% 29.47 in 10.0 mi WNW 8.1 mph - N/A   Partly Cloudy
12:16 PM 35.6 °F 29.2 °F 26.6 °F 70% 29.47 in 10.0 mi WNW 8.1 mph - N/A   Partly Cloudy
12:36 PM 35.6 °F 29.9 °F 26.6 °F 70% 29.46 in 10.0 mi WNW 6.9 mph 16.1 mph N/A   Partly Cloudy
12:56 PM 35.6 °F 29.2 °F 26.6 °F 70% 29.46 in 10.0 mi West 8.1 mph - N/A   Mostly Cloudy
1:16 PM 35.6 °F 28.0 °F 24.8 °F 65% 29.46 in 10.0 mi West 10.4 mph - N/A   Mostly Cloudy
1:36 PM 37.4 °F 32.1 °F 24.8 °F 60% 29.46 in 10.0 mi WNW 6.9 mph - N/A   Mostly Cloudy
1:56 PM 37.4 °F 30.3 °F 24.8 °F 60% 29.46 in 10.0 mi WNW 10.4 mph - N/A   Overcast
2:16 PM 37.4 °F 30.3 °F 24.8 °F 60% 29.45 in 10.0 mi NW 10.4 mph 16.1 mph N/A   Overcast
2:36 PM 37.4 °F 30.3 °F 23.0 °F 56% 29.46 in 10.0 mi WNW 10.4 mph - N/A   Scattered Clouds
2:56 PM 39.2 °F 33.0 °F 24.8 °F 56% 29.45 in 10.0 mi West 9.2 mph - N/A   Mostly Cloudy
3:16 PM 35.6 °F 30.7 °F 23.0 °F 60% 29.46 in 1.2 mi NW 5.8 mph 17.3 mph N/A   Overcast
3:36 PM 35.6 °F 29.2 °F 24.8 °F 65% 29.46 in 1.2 mi WNW 8.1 mph 19.6 mph N/A   Overcast
3:56 PM 33.8 °F 27.7 °F 28.4 °F 81% 29.46 in 10.0 mi WNW 6.9 mph - N/A   Mostly Cloudy
4:16 PM 35.6 °F 29.9 °F 28.4 °F 75% 29.46 in 10.0 mi WSW 6.9 mph - N/A   Partly Cloudy
4:36 PM 37.4 °F 31.4 °F 26.6 °F 65% 29.46 in 10.0 mi West 8.1 mph - N/A   Mostly Cloudy
4:56 PM 37.4 °F 32.8 °F 26.6 °F 65% 29.46 in 10.0 mi SW 5.8 mph - N/A   Mostly Cloudy
5:16 PM 37.4 °F 30.8 °F 28.4 °F 70% 29.45 in 10.0 mi WNW 9.2 mph - N/A   Mostly Cloudy
5:36 PM 37.4 °F 28.9 °F 26.6 °F 65% 29.46 in 10.0 mi WNW 13.8 mph 18.4 mph N/A   Mostly Cloudy
5:56 PM 33.8 °F 26.4 °F 26.6 °F 75% 29.46 in 10.0 mi West 9.2 mph - N/A   Mostly Cloudy
6:16 PM 33.8 °F 28.6 °F 28.4 °F 81% 29.47 in 10.0 mi WSW 5.8 mph - N/A   Scattered Clouds
6:36 PM 35.6 °F 29.9 °F 28.4 °F 75% 29.47 in 10.0 mi West 6.9 mph - N/A   Mostly Cloudy
6:56 PM 33.8 °F 27.7 °F 28.4 °F 81% 29.47 in 10.0 mi West 6.9 mph - N/A   Mostly Cloudy
7:16 PM 33.8 °F 26.4 °F 28.4 °F 81% 29.47 in 10.0 mi WNW 9.2 mph - N/A   Scattered Clouds
7:36 PM 33.8 °F 27.0 °F 28.4 °F 81% 29.48 in 10.0 mi West 8.1 mph - N/A   Mostly Cloudy
7:56 PM 33.8 °F 28.6 °F 28.4 °F 81% 29.48 in 10.0 mi West 5.8 mph - N/A   Overcast
8:16 PM 33.8 °F 30.8 °F 28.4 °F 81% 29.49 in 10.0 mi West 3.5 mph - N/A   Overcast
8:36 PM 33.8 °F 30.8 °F 28.4 °F 81% 29.49 in 10.0 mi West 3.5 mph - N/A   Overcast
8:56 PM 33.8 °F 29.6 °F 28.4 °F 81% 29.49 in 10.0 mi West 4.6 mph - N/A   Overcast
9:16 PM 33.8 °F 29.6 °F 28.4 °F 81% 29.49 in 10.0 mi West 4.6 mph - N/A   Overcast
9:36 PM 32.0 °F 27.5 °F 28.4 °F 87% 29.50 in 10.0 mi West 4.6 mph - N/A   Overcast
9:56 PM 32.0 °F 28.7 °F 26.6 °F 80% 29.51 in 10.0 mi WSW 3.5 mph - N/A   Overcast
10:16 PM 30.2 °F 26.7 °F 26.6 °F 86% 29.51 in 10.0 mi West 3.5 mph - N/A   Overcast
10:36 PM 30.2 °F - 26.6 °F 86% 29.51 in 10.0 mi Calm Calm - N/A   Overcast
10:56 PM 30.2 °F - 26.6 °F 86% 29.52 in 10.0 mi Calm Calm - N/A   Scattered Clouds
11:16 PM 30.2 °F - 28.4 °F 93% 29.53 in 10.0 mi Calm Calm - N/A   Overcast
11:36 PM 30.2 °F - 28.4 °F 93% 29.53 in 10.0 mi Calm Calm - N/A   Overcast
11:56 PM 30.2 °F - 28.4 °F 93% 29.53 in 10.0 mi Calm Calm - N/A   Mostly Cloudy